Wind_Speed
71 79 66 63 65 69 70 69 68 70 73 70 68 75 77 79 80 84 87 90 84 88 91 93 90 89 90 99 108 112 115 117 120 127 126 135 136 137 143 145 148 141 132
70 75 68 65 69 72 75 73 72 72 67 79 77 80 82 85 88 90 95 95 97 98 98 98 97 101 106 110 116 124 126 128 132 132 134 140 143 148 151 146 141 132 117
67 76 70 63 69 74 77 79 77 82 80 81 82 81 86 87 88 91 93 96 99 97 97 104 110 114 120 124 124 126 126 133 137 143 146 147 152 150 149 137 122 126 126
60 77 78 69 69 73 77 79 80 82 84 86 84 84 85 85 87 89 92 96 98 103 108 111 111 113 117 123 129 137 141 140 141 145 147 139 140 127 123 126 127 124 120
59 67 81 77 75 74 75 80 78 75 76 75 78 80 86 86 91 95 97 99 102 105 107 114 116 120 126 133 136 134 138 140 139 136 128 120 127 126 125 121 121 115 100
57 63 77 86 80 81 81 83 82 83 86 85 86 87 91 95 97 99 103 106 109 111 116 121 125 135 139 132 136 132 123 122 125 127 125 124 126 122 118 104 89 84 77
56 65 69 83 87 82 84 85 89 87 86 88 91 94 97 98 107 110 112 114 118 121 123 125 124 126 119 108 114 119 120 122 122 120 118 113 103 94 84 79 74 67 60
50 57 61 67 79 89 87 88 88 90 92 92 97 102 103 106 107 106 104 107 111 112 113 107 95 99 105 110 113 115 115 117 105 94 88 85 79 74 69 64 59 53 47
61 61 63 65 66 74 77 80 83 84 82 85 87 86 87 90 93 94 97 100 103 88 84 89 96 104 107 109 109 110 105 89 80 75 71 67 64 61 56 51 46 42 41
61 68 69 69 69 68 70 74 77 77 78 78 79 82 86 89 93 91 87 77 77 80 84 94 99 99 102 102 101 94 83 73 69 65 59 55 53 50 47 43 42 41 42
36 46 51 62 70 73 74 75 76 77 81 83 84 86 83 73 70 68 67 72 77 81 89 91 92 94 93 94 90 78 69 65 62 57 53 50 46 44 44 43 43 43 44
35 37 39 42 46 57 64 61 59 59 60 61 61 60 60 61 60 64 68 71 77 84 85 87 89 92 94 89 75 65 60 60 59 57 52 50 48 47 46 47 47 46 46
34 36 35 37 36 36 40 42 46 49 52 52 52 54 55 56 61 65 67 71 78 79 81 84 86 91 93 83 70 61 55 52 52 53 53 52 51 51 50 51 51 50 50
31 34 33 34 38 38 38 39 42 46 49 50 50 51 53 57 62 63 65 72 75 76 80 83 85 89 84 72 64 60 57 55 54 53 52 51 52 52 54 54 54 53 54
29 31 32 32 37 43 43 43 45 47 48 48 50 51 53 57 59 62 68 73 73 76 81 84 87 88 78 65 58 56 56 57 57 57 57 57 56 55 54 54 53 54 54
29 30 32 32 33 38 44 47 49 50 49 49 51 52 54 57 59 64 69 71 72 75 82 82 88 84 72 63 58 57 58 57 55 54 52 52 53 53 53 53 53 54 55
32 30 32 35 35 35 38 43 46 48 48 48 49 50 54 58 60 65 69 70 73 76 83 83 88 81 68 60 58 59 58 56 53 49 46 45 44 45 44 45 46 47 48
35 32 32 34 36 37 36 39 42 45 46 48 49 50 55 59 62 66 69 70 74 78 84 85 88 81 68 62 60 59 54 50 47 44 42 40 38 37 37 38 38 38 38
36 36 35 35 37 38 38 38 41 44 46 46 47 49 56 59 64 69 70 70 75 79 84 85 88 81 69 64 62 59 53 47 43 41 39 37 35 34 31 31 30 31 31
38 38 39 37 37 38 40 38 39 42 44 47 47 50 55 59 64 68 69 70 76 80 84 84 88 82 69 65 62 57 52 48 44 40 38 36 34 31 28 26 26 25 25
37 39 40 40 39 39 41 38 37 39 43 46 47 52 56 59 63 67 68 71 77 80 83 84 87 81 69 65 62 56 50 45 42 40 37 34 32 29 26 25 23 22 20
37 39 40 41 42 41 40 41 37 39 43 43 47 51 57 61 63 67 69 72 77 79 82 84 87 81 68 65 61 55 50 46 41 38 35 32 30 27 25 23 21 20 18
38 42 43 43 43 43 42 44 38 39 43 44 47 51 56 61 63 67 68 71 76 77 81 83 85 80 67 64 59 54 49 44 40 36 34 31 28 25 24 22 21 19 18
41 42 43 45 45 44 44 44 39 40 43 44 47 52 57 61 63 68 67 70 76 76 79 81 84 79 65 62 58 52 46 43 40 35 32 31 29 27 26 24 22 21 18
39 40 44 46 45 45 45 45 42 40 43 44 47 53 57 61 64 68 68 69 75 75 77 80 82 76 62 60 55 49 44 41 37 34 31 30 30 28 27 26 25 23 21
41 42 43 45 44 44 45 45 42 40 42 44 48 53 57 61 64 67 67 69 74 73 75 77 79 74 60 57 52 46 41 37 34 31 30 29 29 29 28 27 26 24 23
Wind_Direction
210 213 221 225 226 227 231 234 239 237 242 244 249 255 255 260 266 269 273 279 282 282 282 280 282 284 280 281 283 284 284 284 285 288 290 292 292 293 294 296 297 297 296
210 210 219 227 229 232 235 233 241 243 251 247 249 254 256 265 268 270 272 273 275 276 276 279 282 282 283 284 285 287 286 286 288 289 290 291 294 292 295 297 297 294 293
212 210 215 227 230 233 235 237 241 244 248 252 255 259 260 264 268 269 270 271 274 276 277 278 279 282 282 284 285 286 287 290 290 290 291 291 293 295 294 293 292 292 291
216 215 215 225 230 233 235 239 243 247 251 254 256 259 260 264 266 270 271 272 274 275 277 279 283 283 283 283 286 290 292 293 293 293 292 292 291 291 290 290 290 290 291
221 221 218 224 232 234 237 240 243 246 248 252 255 259 261 266 267 270 273 275 277 280 280 283 284 284 286 290 293 294 292 291 290 290 291 290 289 290 290 290 290 290 292
224 226 226 226 234 238 241 245 247 249 252 255 260 263 267 268 271 274 278 279 280 282 283 286 287 287 291 291 291 291 292 291 290 290 290 290 290 289 289 291 290 291 289
231 229 231 232 234 243 244 250 250 253 258 260 263 266 271 273 273 275 279 281 283 286 286 289 292 291 291 292 290 290 291 294 294 292 291 290 289 288 289 289 289 288 284
248 241 242 241 241 243 246 249 254 258 262 265 266 268 272 274 276 279 282 282 285 288 291 293 294 294 294 294 297 298 298 297 296 293 291 290 289 287 288 287 285 281 278
250 253 253 253 253 250 252 254 258 262 265 266 268 274 277 279 282 285 287 289 293 294 295 299 299 301 301 301 303 303 302 300 298 296 293 291 289 287 285 283 280 278 276
256 255 254 255 259 260 262 262 264 268 272 274 275 276 280 283 286 288 291 293 294 300 300 304 306 306 305 305 306 305 303 302 301 299 297 293 290 288 286 282 279 276 275
278 266 263 261 260 260 260 262 265 268 270 274 276 279 284 287 288 290 293 298 302 305 308 309 310 309 309 311 311 307 304 304 303 300 297 293 289 285 283 281 279 278 278
296 291 273 268 266 261 260 263 267 270 272 275 278 280 284 288 293 296 300 303 306 311 313 314 315 315 316 316 312 306 305 304 303 300 297 294 290 285 281 279 279 278 277
302 300 288 271 273 271 268 267 269 272 274 276 281 287 290 294 296 299 303 307 312 314 317 317 318 319 320 318 314 309 304 301 299 298 297 294 290 286 282 279 278 277 277
304 305 299 277 267 269 269 268 269 274 278 284 288 290 293 295 298 304 308 312 314 315 320 321 320 321 322 319 314 311 309 306 303 299 294 290 287 285 283 281 280 278 276
301 305 306 293 272 266 269 271 273 278 286 289 288 292 297 298 304 309 312 316 317 320 325 325 324 325 325 322 317 312 309 307 303 299 296 293 289 285 281 278 275 274 273
299 301 305 304 291 275 270 271 275 280 284 288 292 296 299 303 308 311 317 318 321 325 327 328 327 330 328 325 321 317 314 310 306 303 298 294 290 287 284 282 279 275 273
296 299 300 303 304 289 277 273 274 279 285 291 297 300 302 306 309 316 320 320 325 328 330 331 332 334 331 328 325 322 319 316 313 310 306 301 296 291 289 286 282 279 276
293 298 298 299 301 301 285 276 277 282 287 294 298 301 303 307 313 320 322 325 329 330 332 334 336 337 335 332 330 328 325 322 319 316 314 309 305 300 295 291 287 283 280
291 296 298 298 299 301 299 282 279 283 288 294 298 300 304 310 317 322 326 329 330 331 333 336 340 340 337 337 335 332 330 329 327 324 321 319 315 310 305 299 294 289 284
291 295 297 299 301 301 305 292 282 284 290 294 299 301 306 312 319 324 326 331 331 333 335 338 342 342 339 339 337 335 335 333 332 330 329 326 324 320 315 310 304 300 294
291 296 298 300 301 303 306 302 287 286 289 296 300 303 309 315 321 324 326 331 332 335 337 340 343 343 341 340 339 339 338 338 336 335 335 334 330 328 324 320 317 314 308
287 294 299 299 300 304 305 310 294 289 291 298 300 306 311 318 322 326 327 331 333 335 338 340 343 344 342 341 341 341 341 342 342 340 341 340 339 338 336 332 328 324 319
282 288 292 297 299 302 304 310 299 290 293 297 302 307 312 318 323 326 327 331 334 336 338 341 343 344 342 341 342 342 344 345 345 346 346 346 346 346 347 345 342 336 331
277 283 288 291 294 297 302 306 301 290 293 297 304 309 314 319 323 326 328 332 334 337 339 341 343 343 342 342 343 343 345 348 349 350 353 353 354 354 355 355 354 351 346
280 283 287 288 291 293 298 304 300 291 292 299 305 309 315 319 323 326 328 331 334 336 339 341 342 343 342 342 342 344 347 349 350 352 357 360 0 1 2 2 360 357 353
284 286 285 286 288 290 294 300 297 290 294 301 306 311 316 319 323 326 328 330 334 336 338 340 342 342 342 342 342 344 347 350 351 353 358 1 2 2 3 2 1 357 356
Height
10632 10640 10647 10649 10652 10655 10653 10656 10658 10661 10663 10665 10666 10665 10664 10661 10658 10656 10652 10647 10643 10637 10633 10630 10625 10620 10614 10609 10600 10593 10583 10573 10567 10561 10548 10539 10528 10521 10515 10505 10497 10494 10485
10623 10630 10635 10637 10641 10643 10647 10647 10649 10651 10651 10653 10652 10652 10651 10647 10643 10642 10637 10632 10627 10622 10616 10611 10606 10601 10592 10584 10575 10567 10557 10546 10539 10533 10519 10505 10493 10483 10480 10474 10460 10459 10448
10613 10620 10624 10629 10632 10633 10636 10635 10637 10638 10638 10638 10638 10639 10636 10632 10629 10623 10619 10615 10611 10606 10600 10591 10584 10578 10570 10560 10548 10542 10531 10520 10507 10497 10487 10477 10463 10448 10445 10440 10430 10424 10417
10604 10610 10615 10617 10619 10620 10622 10622 10624 10625 10625 10625 10624 10623 10621 10615 10611 10608 10602 10597 10592 10586 10580 10573 10564 10553 10544 10535 10527 10514 10501 10490 10476 10460 10450 10441 10430 10416 10414 10409 10400 10391 10384
10599 10602 10604 10607 10607 10607 10609 10610 10611 10612 10611 10611 10609 10608 10604 10600 10594 10591 10586 10580 10575 10567 10560 10550 10540 10532 10521 10507 10497 10484 10469 10455 10442 10431 10416 10408 10394 10388 10381 10373 10366 10358 10352
10589 10592 10595 10595 10595 10597 10599 10598 10599 10599 10598 10599 10596 10593 10589 10585 10580 10576 10571 10564 10556 10547 10537 10528 10518 10509 10502 10485 10466 10447 10431 10419 10408 10395 10385 10372 10360 10352 10345 10341 10333 10330 10324
10582 10582 10583 10585 10588 10587 10587 10586 10586 10587 10585 10584 10581 10576 10573 10570 10565 10560 10552 10546 10536 10530 10521 10512 10500 10484 10468 10451 10436 10419 10402 10386 10373 10359 10344 10333 10324 10316 10317 10313 10310 10307 10302
10573 10576 10577 10578 10578 10578 10574 10574 10572 10574 10574 10572 10569 10565 10562 10557 10552 10546 10538 10529 10521 10512 10503 10490 10472 10456 10438 10422 10406 10387 10369 10352 10334 10321 10310 10301 10298 10294 10296 10292 10288 10286 10284
10565 10565 10566 10566 10565 10566 10566 10566 10564 10563 10563 10560 10556 10551 10546 10543 10537 10529 10521 10512 10504 10491 10481 10466 10450 10431 10413 10396 10376 10354 10333 10319 10306 10295 10287 10281 10276 10275 10273 10272 10269 10270 10269
10554 10552 10551 10551 10552 10552 10552 10551 10550 10550 10547 10543 10539 10535 10531 10527 10522 10512 10503 10494 10485 10476 10462 10443 10426 10408 10388 10369 10350 10328 10309 10298 10285 10276 10269 10263 10258 10255 10254 10254 10253 10254 10254
10542 10538 10535 10535 10534 10535 10535 10535 10535 10534 10531 10527 10521 10519 10515 10510 10504 10498 10489 10479 10466 10454 10440 10421 10403 10385 10367 10347 10322 10303 10289 10278 10270 10262 10254 10249 10246 10242 10239 10239 10238 10239 10239
10529 10525 10522 10520 10518 10517 10518 10519 10519 10518 10515 10511 10509 10506 10502 10497 10490 10483 10474 10464 10452 10437 10420 10400 10380 10359 10339 10321 10304 10288 10275 10264 10254 10246 10241 10235 10231 10228 10227 10225 10224 10223 10223
10519 10515 10511 10509 10507 10506 10506 10507 10507 10505 10503 10501 10498 10494 10489 10483 10476 10468 10460 10450 10436 10421 10403 10382 10362 10341 10318 10296 10280 10270 10261 10252 10243 10233 10225 10219 10215 10212 10211 10209 10207 10206 10205
10512 10507 10502 10499 10498 10498 10498 10497 10496 10494 10492 10490 10487 10482 10478 10472 10463 10455 10445 10433 10420 10404 10386 10366 10346 10324 10301 10280 10264 10252 10242 10234 10226 10218 10211 10205 10200 10195 10192 10190 10187 10186 10185
10504 10500 10496 10492 10490 10489 10488 10487 10485 10483 10481 10478 10475 10471 10465 10458 10450 10441 10430 10417 10402 10385 10367 10348 10326 10303 10281 10264 10251 10239 10228 10218 10208 10199 10191 10184 10179 10175 10172 10170 10169 10167 10165
10495 10492 10489 10485 10481 10478 10477 10476 10474 10471 10470 10467 10463 10458 10451 10444 10437 10427 10415 10402 10387 10370 10352 10331 10308 10285 10264 10248 10236 10224 10213 10201 10190 10180 10172 10165 10158 10153 10150 10148 10146 10144 10143
10487 10484 10480 10477 10473 10469 10467 10465 10463 10461 10458 10455 10450 10445 10438 10432 10424 10413 10401 10386 10371 10354 10335 10314 10292 10269 10250 10235 10222 10209 10195 10183 10172 10163 10154 10147 10141 10135 10131 10127 10125 10122 10121
10477 10475 10471 10468 10465 10461 10458 10455 10453 10451 10448 10444 10439 10433 10427 10419 10410 10400 10387 10372 10355 10338 10320 10300 10277 10255 10237 10223 10209 10194 10181 10170 10159 10149 10141 10133 10126 10121 10116 10112 10109 10106 10105
10468 10465 10462 10459 10456 10452 10448 10445 10443 10441 10438 10435 10430 10423 10415 10407 10396 10385 10371 10357 10343 10327 10309 10288 10266 10243 10225 10210 10196 10182 10170 10159 10149 10139 10130 10123 10116 10109 10104 10100 10096 10094 10092
10457 10454 10451 10448 10445 10442 10438 10434 10432 10430 10427 10423 10418 10412 10405 10396 10386 10373 10360 10346 10331 10315 10297 10276 10255 10234 10216 10202 10188 10174 10161 10149 10139 10130 10121 10113 10106 10100 10095 10091 10088 10084 10082
10447 10444 10441 10438 10435 10432 10429 10425 10422 10420 10417 10413 10406 10400 10393 10384 10374 10362 10349 10335 10320 10303 10286 10266 10247 10227 10209 10195 10180 10166 10155 10144 10133 10123 10114 10107 10100 10094 10089 10085 10081 10078 10075
10437 10435 10431 10428 10425 10422 10420 10416 10412 10410 10406 10402 10395 10389 10381 10372 10362 10350 10337 10325 10310 10294 10277 10258 10239 10220 10203 10188 10174 10161 10149 10138 10128 10119 10110 10103 10096 10090 10085 10080 10076 10073 10070
10428 10425 10422 10419 10416 10413 10410 10407 10403 10400 10396 10391 10385 10379 10371 10362 10352 10341 10329 10316 10301 10285 10269 10251 10232 10214 10197 10182 10169 10156 10145 10134 10125 10116 10108 10101 10095 10089 10084 10078 10074 10069 10066
10417 10415 10412 10409 10406 10403 10400 10398 10394 10390 10386 10382 10376 10369 10360 10352 10342 10332 10320 10307 10293 10278 10261 10244 10227 10209 10192 10178 10166 10154 10142 10132 10123 10115 10107 10101 10094 10088 10082 10077 10073 10068 10065
10407 10405 10402 10399 10396 10394 10391 10388 10385 10381 10377 10373 10368 10360 10352 10343 10333 10322 10311 10299 10285 10270 10254 10238 10221 10204 10188 10175 10162 10151 10141 10131 10123 10115 10108 10101 10095 10089 10083 10077 10072 10068 10065
10396 10394 10392 10389 10387 10384 10382 10379 10375 10371 10368 10364 10358 10351 10343 10334 10325 10314 10302 10290 10277 10262 10247 10232 10216 10199 10184 10172 10160 10149 10140 10131 10124 10116 10109 10103 10097 10092 10085 10079 10074 10070 10066